Find Starlink 3267

NORAD ID: 50197 Int'l Des: 2021-125 Owner: SPXS Country: US Constellation: starlink operational
LEOCIRCULAR

Live Position

Loading 3D Globe...

About Starlink 3267

Description loading...

Upcoming Passes

Passes for default location (London). Set your location on the main map for personalized predictions.

Altitude History

Loading altitude history...

Two-Line Element Set

1 50197U 21125AT 26106.84689046 -.00000478 00000-0 -11928-4 0 9999
2 50197 53.2176 67.8247 0001369 87.4965 272.6184 15.08837505242549
Epoch: Apr 16, 2026 • Age: 6 hours

Current Status

Altitude 540.0 km
Velocity 7.59 km/s
Sub-Earth Point 5.44°N, 9.63°E
Launch Date Dec 18, 2021
Age 4.3 years
Type internet

Technical Details

Classification Payload
Mass 290.00 kg
Dry Mass 270.00 kg
Total Mass 290.00 kg
Length 0.20 m
Diameter 2.80 m
Span 9.00 m
Shape Box + pan
Manufacturer SPXS
Bus Type Starlink
Phase Status In Orbit
Owner/State SPXS/US

Most Searched